Airfield :
LOGIN :

Register | Disclaimer

   EN    FR    IT 

 










Legend :    VFR   Marginal VFR   IFR   Intensive IFR   Very Intensive IFR
Visi :
Ceiling :
>= 8 km
>= 3000ft
5 to 8 km
1000 to 3000 ft
1500m to 5 km
500 to 1000 ft
800 to 1500m
200 to 500 ft
< 800m
< 200 ft
Symbols :   Thunderstorms  Fog  Heavy snow  Heavy precipitations  Wind > 20 kt
SIGMETs :     Misc.  Thunderstorms  Icing  Turbulence  Mountain Waves  Volcanic Ashes







- Airport Elevation : 327 ft
- IATA code : BHX
- Download approach charts


EGBB - Birmingham

CURRENT METAR :
  • 212220Z 32007KT CAVOK 16/10 Q1016

EXPIRED METARs :
  • 212150Z 33006KT CAVOK 16/11 Q1016
  • 212120Z 33006KT CAVOK 17/11 Q1016
  • 212050Z 35006KT CAVOK 18/09 Q1016
  • 212020Z 01007KT CAVOK 18/08 Q1016
  • 211950Z 07005KT CAVOK 19/07 Q1016

TAF AMD TAF EGBB
Valid from the 21 at 18:00 until the 22 at 18:00 UTC


211716Z 2118/2218 04010KT 9999 FEW045
BECMG 2118/2121 VRB05KT
PROB40
TEMPO 2201/2208 8000 BKN004
ATIS : +44 121 780 0910
No reported NOTAMs for that airfield.



MET'MAP, your aeronautical weather chart ! - Copyright ORBIFLY December 2007 - Disclaimer

ORBIFLY MET'MAP TEAM :

Programming & Development : Alexandra Zaïnal
Concept & Development : Baudouin d'Aumeries
Co-Development & Prog : Marc-Olivier Méhu
Technical & hardware support : Manuel Goepfert

Contact : metmap@orbifly.com




SOURCES & CREDITS :

   NOAA